TimeCDT,TemperatureF,Dew PointF,Humidity,Sea Level PressureIn,VisibilityMPH,Wind Direction,Wind SpeedMPH,Gust SpeedMPH,PrecipitationIn,Events,Conditions,WindDirDegrees,DateUTC
12:53 AM,36.0,33.1,89,29.95,-9999.0,Calm,Calm,-,N/A,,Clear,0,2013-05-04 05:53:00
1:53 AM,35.1,33.1,92,29.94,10.0,Calm,Calm,-,N/A,,Clear,0,2013-05-04 06:53:00
2:53 AM,36.0,33.1,89,29.93,10.0,SW,5.8,-,N/A,,Clear,220,2013-05-04 07:53:00
3:53 AM,35.1,33.1,92,29.92,10.0,Calm,Calm,-,N/A,,Clear,0,2013-05-04 08:53:00
4:11 AM,37.4,33.8,87,29.90,10.0,WSW,3.5,-,N/A,,Mostly Cloudy,250,2013-05-04 09:11:00
4:53 AM,39.9,37.0,89,29.91,10.0,Calm,Calm,-,N/A,,Overcast,0,2013-05-04 09:53:00
5:53 AM,39.9,37.0,89,29.91,10.0,South,3.5,-,N/A,,Overcast,190,2013-05-04 10:53:00
6:22 AM,39.2,37.4,93,29.91,10.0,SW,3.5,-,N/A,,Overcast,220,2013-05-04 11:22:00
6:53 AM,39.9,37.0,89,29.93,10.0,SSW,4.6,-,N/A,,Clear,200,2013-05-04 11:53:00
7:53 AM,43.0,37.9,82,29.94,10.0,South,3.5,-,N/A,,Clear,170,2013-05-04 12:53:00
8:53 AM,45.0,39.0,80,29.94,10.0,SSW,8.1,-,N/A,,Mostly Cloudy,200,2013-05-04 13:53:00
9:32 AM,46.4,37.4,71,29.93,10.0,SSW,6.9,-,N/A,,Overcast,200,2013-05-04 14:32:00
9:53 AM,46.9,39.0,74,29.94,10.0,Variable,4.6,-,N/A,,Overcast,0,2013-05-04 14:53:00
10:00 AM,46.4,39.2,76,29.93,10.0,SSW,6.9,-,N/A,,Overcast,210,2013-05-04 15:00:00
10:43 AM,48.2,37.4,66,29.94,10.0,SSW,8.1,-,N/A,,Overcast,200,2013-05-04 15:43:00
10:53 AM,48.0,39.0,71,29.94,10.0,South,9.2,-,N/A,,Overcast,190,2013-05-04 15:53:00
11:53 AM,51.1,39.9,66,29.93,10.0,SSW,13.8,18.4,N/A,,Overcast,200,2013-05-04 16:53:00
12:05 PM,48.2,41.0,76,29.93,10.0,SW,10.4,-,0.00,Rain,Light Rain,230,2013-05-04 17:05:00
12:53 PM,51.1,39.9,66,29.91,10.0,SW,11.5,-,0.01,,Overcast,230,2013-05-04 17:53:00
1:01 PM,51.8,39.2,62,29.91,10.0,WSW,12.7,-,N/A,,Overcast,240,2013-05-04 18:01:00
1:53 PM,51.1,39.9,66,29.91,10.0,Variable,4.6,-,N/A,,Overcast,0,2013-05-04 18:53:00
2:53 PM,52.0,39.0,61,29.91,10.0,SW,8.1,-,N/A,,Overcast,230,2013-05-04 19:53:00
3:53 PM,51.1,39.0,63,29.92,10.0,SSW,3.5,-,0.00,Rain,Light Rain,200,2013-05-04 20:53:00
4:53 PM,48.9,43.0,80,29.92,9.0,SE,6.9,-,0.02,Rain,Light Rain,130,2013-05-04 21:53:00
5:53 PM,48.9,42.1,77,29.93,9.0,Calm,Calm,-,0.04,Rain,Light Rain,0,2013-05-04 22:53:00
6:53 PM,46.9,43.0,86,29.92,9.0,Calm,Calm,-,0.03,Rain,Light Rain,0,2013-05-04 23:53:00
7:43 PM,46.4,42.8,87,29.92,10.0,NNE,3.5,-,0.00,,Overcast,30,2013-05-05 00:43:00
7:53 PM,46.9,43.0,86,29.93,10.0,North,4.6,-,0.00,,Overcast,360,2013-05-05 00:53:00
8:35 PM,46.4,42.8,87,29.93,10.0,North,4.6,-,N/A,,Overcast,360,2013-05-05 01:35:00
8:53 PM,46.0,43.0,89,29.94,10.0,North,3.5,-,N/A,,Overcast,10,2013-05-05 01:53:00
9:49 PM,46.4,42.8,87,29.94,10.0,NNE,4.6,-,N/A,,Overcast,30,2013-05-05 02:49:00
9:53 PM,46.9,44.1,90,29.95,10.0,NNE,3.5,-,N/A,,Overcast,30,2013-05-05 02:53:00
10:26 PM,46.4,44.6,93,29.94,10.0,NE,3.5,-,N/A,,Overcast,40,2013-05-05 03:26:00
10:53 PM,46.9,44.1,90,29.94,10.0,NNE,3.5,-,N/A,,Overcast,20,2013-05-05 03:53:00
11:53 PM,46.0,43.0,89,29.94,10.0,NNW,4.6,-,N/A,,Mostly Cloudy,340,2013-05-05 04:53:00